Regional Weather Roundup
Issued by NWS Sterling, VA

Home | Current Version | Previous Version | Graphics & Text | Print | Product List | Glossary On
Versions: 1 2 3 4 5 6 7 8 9 10 11 12 13 14 15 16 17 18 19 20 21 22 23 24 25 26 27 28 29 30 31 32 33 34 35 36 37 38 39 40 41 42 43 44 45 46 47 48 49 50
000
ASUS41 KLWX 181911
RWRLWX

REGIONAL WEATHER ROUNDUP
NATIONAL WEATHER SERVICE BALTIMORE MD/WASHINGTON DC
200 PM EST THU JAN 18 2018

Note: "FAIR" indicates few or no clouds below 12,000 feet
with no significant weather and/or obstructions to visibility.
 TC=TEMPERATURE CELSIUS

 * =Non NWS site. Station does not report precipitation (e.g. rain,
    snow, etc.), thunder, or fog.

DCZ001-MDZ009-015-VAZ040>042-051-053>054-182000-
WASHINGTON METRO

CITY           SKY/WX    TMP DP  RH WIND       PRES   REMARKS
WASHINGTON NAT FAIR      45   5  19 W8        30.06F
DULLES         FAIR      43   4  19 W20G26    30.05F WCI  34
ANDREWS AFB    FAIR      41   6  23 W17G23    30.02F WCI  32
FT BELVOIR     FAIR      44   4  18 W13G22    30.05F
QUANTICO       SUNNY     43   5  20 W12       30.09F
COLLEGE PARK*  FAIR      41   5  22 W10G18    30.04F WCI  35
LEESBURG*      FAIR      45  10  24 NW15G22   30.06F
MANASSAS*      FAIR      44   6  21 W9G18     30.07F
GAITHERSBURG*  FAIR      38   9  30 W18G29    30.03F WCI  28

$$

MDZ006>007-011-014-182000-
BALTIMORE METRO

CITY           SKY/WX    TMP DP  RH WIND       PRES   REMARKS
BWI AIRPORT    FAIR      38  12  34 W15G24    30.02F WCI  29
MD SCIENCE CTR   N/A     41   8  25 MISG      30.02F
MARTIN STATE   SUNNY     39  18  41 W17G25    30.04F WCI  30
ANNAPOLIS      FAIR      40  10  29 W12       30.04F WCI  33
FORT MEADE*    FAIR      39  10  30 NW13G23   30.06F WCI  32

$$

MDZ012-015-019>023-182000-
MARYLAND EASTERN SHORE

CITY           SKY/WX    TMP DP  RH WIND       PRES   REMARKS
OCEAN CITY     FAIR      36  11  35 NW13G23   30.03F WCI  27
SALISBURY      FAIR      36   8  31 W16G28    30.05F WCI  26
BAY BRIDGE AP* FAIR      36  12  38 W12       30.04F WCI  27
CAMBRIDGE*     SUNNY     36   9  32 NW9       30.06F WCI  29
EASTON*        SUNNY     37  10  32 W10       30.08F WCI  30

$$

MDZ017>025-182000-
SOUTHERN MARYLAND

CITY           SKY/WX    TMP DP  RH WIND       PRES   REMARKS
PATUXENT RIVER NOT AVBL
ST INIGOES     FAIR      35  10  35 W14       30.08F WCI  26
LEONARDTOWN*   FAIR      36  10  35 W9        30.08F WCI  29

$$

MDZ003>005-182000-
NORTH CENTRAL MARYLAND

CITY           SKY/WX    TMP DP  RH WIND       PRES   REMARKS
FREDERICK*     SUNNY     41  -4  15 W13G20    30.09F WCI  34
HAGERSTOWN APT FAIR      36  11  35 W12       30.03F WCI  28
WESTMINSTER*   FAIR      34  12  40 W12G22    30.00F WCI  25

$$

MDZ501>502-182000-
WESTERN MARYLAND

CITY           SKY/WX    TMP DP  RH WIND       PRES   REMARKS
OAKLAND*       FAIR      21   7  53 W15G26    30.01F WCI   8
CUMBERLAND*    FAIR      37  10  32 W10G18    30.12F WCI  30

$$

VAZ025>031-182000-
SHENANDOAH VALLEY

CITY           SKY/WX    TMP DP  RH WIND       PRES   REMARKS
WINCHESTER*    FAIR      41   3  20 W16       30.06F WCI  33
FRONT ROYAL*   FAIR      41   9  26 MISG      30.05F
LURAY*         FAIR      39  10  30 S8        30.06F WCI  34
NEW MARKET*    FAIR      40   3  22 SW7       30.06F WCI  35
STAUNTON*      FAIR      38  11  32 SW9       30.08F WCI  32
WAYNESBORO*    FAIR      34   9  35 SW14G23   30.08F WCI  25

$$

WVZ021-048>050-054>055-182000-
EASTERN WEST VIRGINIA PANHANDLE

CITY           SKY/WX    TMP DP  RH WIND       PRES   REMARKS
MARTINSBURG    FAIR      41   5  22 W15       30.05F WCI  33
PETERSBURG*    FAIR      39   8  27 W16G29    30.08S WCI  30

$$

VAZ036>039-050-182000-
CENTRAL FOOTHILLS

CITY           SKY/WX    TMP DP  RH WIND       PRES   REMARKS
CHARLOTTESVILL FAIR      43   5  20 VRB7      30.07F
CULPEPER*      FAIR      45   2  17 SW8       30.07F
ORANGE*        FAIR      43   9  24 CALM      30.08F
GORDONSVILLE*  FAIR      42   8  24 SW12      30.07F
WARRENTON*     FAIR      43  -3  14 S5        30.06F

$$

VAZ055>057-182000-
NORTH AND CENTRAL PIEDMONT

CITY           SKY/WX    TMP DP  RH WIND       PRES   REMARKS
FREDERICKSBRG* FAIR      41  11  29 W6G16     30.08F
STAFFORD*      FAIR      42   6  22 W7        30.12F

$$

NCZ024-NYZ072-PAZ021-071-VAZ022-071-182000-
OTHER REGIONAL OBSERVATIONS

CITY           SKY/WX    TMP DP  RH WIND       PRES   REMARKS
NEW YORK CITY  FAIR      31   8  38 NW8G17    29.95F WCI  23
PHILADELPHIA   FAIR      33   7  33 W12G21    30.00F WCI  24
PITTSBURGH     FAIR      24  10  55 SW14G20   30.12F WCI  12
ROANOKE        FAIR      33  10  38 W16G22    30.18F WCI  23
RICHMOND       FAIR      40  14  34 W12       30.10F WCI  33
RALEIGH        FAIR      32  19  58 W8        30.23F WCI  25

$$

ANZ530>537-182000-
MARINE OBSERVATIONS

STATION/POSITION TIME  TEMP    WIND        PRES
                       AIR SEA DIR/SP/G
                 (UTC) (F)     (DEG/KT/KT) (MB)
THOMAS PT LIGHT  1900   36 32  300/ 13/ 14   N/A
BALT KEY BRIDGE  1836   36     280/ 17/ 19 1016.9F
COVE POINT       1836   36     300/ 14/ 17 1018.7F
LEWISETTA        1848   36 32  300/ 13/ 16 1018.8F
SOLOMONS ISLAND  1836   37 34  270/  9/ 14 1018.0F
PINEY POINT      1848          320/ 14/ 15   N/A

$$




USA.gov is the U.S. government's official web portal to all federal, state and local government web resources and services.